Lawton, OK

7:08 PM CDT on June 22, 2017 (GMT -0500)
Lawton-Fort Sill Regional

Weather History for KLAW - May, 2013

Change the Weather History Date:

Sunday, May 19, 2013

  Actual Average Record
Temperature  
Mean Temperature 84 °F -  
Max Temperature 100 °F 84 °F 100 °F (1973)
Min Temperature 69 °F 59 °F 44 °F (2002)
Cooling Degree Days 20    
Growing Degree Days 34 (Base 50)    
Moisture  
Dew Point 56 °F    
Average Humidity 50    
Maximum Humidity 87    
Minimum Humidity 10    
Precipitation  
Precipitation 0.00 in - - ()
Sea Level Pressure  
Sea Level Pressure 29.59 in    
Wind  
Wind Speed 13 mph (South)    
Max Wind Speed 22 mph    
Max Gust Speed 30 mph    
Visibility 10 miles    
Events      
Averages and records for this station are not official NWS values.
T = Trace of Precipitation, MM = Missing Value Source: NWS Daily Summary

Daily Weather History Graph

Daily Weather History Graph

Search for Another Location

Airport or City:

Trip Planner

Search our weather history database for the weather conditions in past years. The results will help you decide how hot, cold, wet, or windy it might be!

Date:

Astronomy

May. 19, 2013 Rise Set
Actual Time 6:28 AM CDT 8:32 PM CDT
Civil Twilight 5:59 AM CDT 9:00 PM CDT
Nautical Twilight 5:25 AM CDT 9:35 PM CDT
Astronomical Twilight 4:48 AM CDT 10:12 PM CDT
Moon 2:52 PM CDT (5/19) 2:37 AM CDT (5/19)
Length of Visible Light 15h 01m
Length of Day
14h 04m
Waxing Gibbous, 65% of the Moon is Illuminated
May 19
Waxing Gibbous
May 24
Full
May 31
Last Quarter
Jun 8
New
Jun 16
First Quarter

Hourly Weather History & Observations

Time (CDT) Temp. Heat Index Dew Point Humidity Pressure Visibility Wind Dir Wind Speed Gust Speed Precip Events Conditions
12:53 AM 69.1 °F - 63.0 °F 81% 29.68 in 10.0 mi ESE 11.5 mph - N/A   Clear
1:53 AM 69.1 °F - 64.9 °F 87% 29.66 in 9.0 mi ESE 9.2 mph - N/A   Clear
2:53 AM 75.0 °F - 66.0 °F 73% 29.63 in 9.0 mi SSE 11.5 mph - N/A   Clear
3:53 AM 73.9 °F - 64.9 °F 73% 29.63 in 10.0 mi SSE 12.7 mph - N/A   Clear
4:53 AM 72.0 °F - 64.9 °F 78% 29.63 in 10.0 mi SSE 10.4 mph - N/A   Clear
5:53 AM 72.0 °F - 64.0 °F 76% 29.62 in 10.0 mi SSE 11.5 mph - N/A   Clear
7:53 AM 73.9 °F - 64.9 °F 73% 29.65 in 10.0 mi South 15.0 mph 19.6 mph N/A   Clear
8:53 AM 78.1 °F - 66.0 °F 66% 29.65 in 10.0 mi South 17.3 mph - N/A   Clear
9:53 AM 82.0 °F 84.1 °F 66.0 °F 58% 29.64 in 10.0 mi South 18.4 mph 28.8 mph N/A   Clear
10:53 AM 86.0 °F 88.2 °F 66.0 °F 51% 29.63 in 10.0 mi South 19.6 mph 25.3 mph N/A   Clear
11:53 AM 89.1 °F 91.0 °F 64.9 °F 45% 29.61 in 10.0 mi South 19.6 mph 29.9 mph N/A   Clear
12:53 PM 91.9 °F 94.1 °F 64.9 °F 41% 29.59 in 10.0 mi South 21.9 mph 28.8 mph N/A   Clear
3:53 PM 100.9 °F - 37.9 °F 11% 29.51 in 10.0 mi SW 17.3 mph 29.9 mph N/A   Clear
4:53 PM 100.9 °F - 36.0 °F 11% 29.48 in 10.0 mi SW 16.1 mph 27.6 mph N/A   Clear
5:53 PM 99.0 °F - 34.0 °F 10% 29.48 in 10.0 mi WSW 18.4 mph 29.9 mph N/A   Clear
6:53 PM 98.1 °F - 32.0 °F 10% 29.48 in 10.0 mi WSW 15.0 mph 25.3 mph N/A   Clear
7:53 PM 91.9 °F - 35.1 °F 13% 29.52 in 10.0 mi WSW 6.9 mph - N/A   Clear
8:53 PM 82.0 °F - 37.9 °F 21% 29.56 in 10.0 mi Calm Calm - N/A   Clear
9:53 PM 80.1 °F 80.9 °F 60.1 °F 50% 29.58 in 10.0 mi SE 11.5 mph - N/A   Clear
11:53 PM 79.0 °F - 68.0 °F 69% 29.61 in 8.0 mi SSE 11.5 mph - N/A   Clear